| time (UTC) | temp F | wind direction | speed MPH | gust MPH | rain 1hr in | rain 24hr in | rain mn in | humidity % | barometer mb |
| 20260504205122 | 51 | 0.0 | 0.0 | 0.00 | 0.00 | 0.00 | 26 | 1011.4 | |
| 20260504204618 | 51 | 0.0 | 0.0 | 0.00 | 0.00 | 0.00 | 26 | 1011.4 | |
| 20260504204115 | 52 | 0.0 | 0.0 | 0.00 | 0.00 | 0.00 | 26 | 1011.4 | |
| 20260504203510 | 52 | 0.0 | 0.0 | 0.00 | 0.00 | 0.00 | 23 | 1011.5 | |
| 20260504202906 | 53 | 0.0 | 0.0 | 0.00 | 0.00 | 0.00 | 20 | 1011.3 | |
| 20260504202304 | 54 | 0.0 | 0.0 | 0.00 | 0.00 | 0.00 | 15 | 1011.5 | |
| 20260504201759 | 55 | 0.0 | 0.0 | 0.00 | 0.00 | 0.00 | 15 | 1011.1 | |
| 20260504201314 | 55 | 0.0 | 0.0 | 0.00 | 0.00 | 0.00 | 15 | 1011.3 | |
| 20260504200749 | 56 | 0.0 | 0.0 | 0.00 | 0.00 | 0.00 | 15 | 1011.5 | |
| 20260504200244 | 57 | 0.0 | 0.0 | 0.00 | 0.00 | 0.00 | 19 | 1011.5 | |
| 20260504195739 | 58 | 0.0 | 0.0 | 0.00 | 0.00 | 0.00 | 19 | 1011.5 | |
| 20260504195235 | 58 | 0.0 | 0.0 | 0.00 | 0.00 | 0.00 | 19 | 1011.5 | |
| 20260504194729 | 58 | 0.0 | 0.0 | 0.00 | 0.00 | 0.00 | 19 | 1011.5 | |
| 20260504194225 | 59 | 0.0 | 0.0 | 0.00 | 0.00 | 0.00 | 19 | 1011.5 | |
| 20260504193720 | 59 | 0.0 | 0.0 | 0.00 | 0.00 | 0.00 | 19 | 1011.3 | |
| 20260504193222 | 59 | 0.0 | 0.0 | 0.00 | 0.00 | 0.00 | 19 | 1011.3 | |
| 20260504192610 | 59 | 0.0 | 0.0 | 0.00 | 0.00 | 0.00 | 19 | 1011.2 | |
| 20260504192007 | 60 | 0.0 | 0.0 | 0.00 | 0.00 | 0.00 | 19 | 1011.2 | |
| 20260504191403 | 60 | 0.0 | 0.0 | 0.00 | 0.00 | 0.00 | 19 | 1011.2 | |
| 20260504191020 | 60 | 0.0 | 0.0 | 0.00 | 0.00 | 0.00 | 19 | 1011.1 | |
| 20260504190455 | 60 | 0.0 | 0.0 | 0.00 | 0.00 | 0.00 | 19 | 1011.0 | |
| 20260504185950 | 61 | 0.0 | 0.0 | 0.00 | 0.00 | 0.00 | 19 | 1011.2 | |
| 20260504185446 | 61 | 0.0 | 0.0 | 0.00 | 0.00 | 0.00 | 19 | 1010.9 | |
| 20260504184941 | 61 | 0.0 | 0.0 | 0.00 | 0.00 | 0.00 | 19 | 1010.8 | |
| 20260504184436 | 62 | 0.0 | 0.0 | 0.00 | 0.00 | 0.00 | 19 | 1010.9 | |
| 20260504183932 | 63 | 0.0 | 0.0 | 0.00 | 0.00 | 0.00 | 19 | 1010.8 | |
| 20260504183427 | 64 | 0.0 | 0.0 | 0.00 | 0.00 | 0.00 | 19 | 1010.6 | |
| 20260504182923 | 64 | 0.0 | 0.0 | 0.00 | 0.00 | 0.00 | 19 | 1010.9 | |
| 20260504182438 | 64 | 0.0 | 0.0 | 0.00 | 0.00 | 0.00 | 19 | 1010.8 | |
| 20260504181913 | 66 | 0.0 | 0.0 | 0.00 | 0.00 | 0.00 | 19 | 1010.7 | |
| 20260504181330 | 66 | 0.0 | 0.0 | 0.00 | 0.00 | 0.00 | 19 | 1010.6 | |
| 20260504180706 | 69 | 0.0 | 0.0 | 0.00 | 0.00 | 0.00 | 19 | 1010.5 | |
| 20260504180123 | 69 | 0.0 | 0.0 | 0.00 | 0.00 | 0.00 | 19 | 1010.6 | |
| 20260504175559 | 70 | 0.0 | 0.0 | 0.00 | 0.00 | 0.00 | 19 | 1010.5 | |
| 20260504175054 | 70 | 0.0 | 0.0 | 0.00 | 0.00 | 0.00 | 19 | 1010.5 | |
| 20260504174549 | 70 | 0.0 | 0.0 | 0.00 | 0.00 | 0.00 | 19 | 1010.5 | |
| 20260504174045 | 71 | 0.0 | 0.0 | 0.00 | 0.00 | 0.00 | 19 | 1010.4 | |
| 20260504173601 | 71 | 0.0 | 0.0 | 0.00 | 0.00 | 0.00 | 19 | 1010.4 | |
| 20260504173056 | 72 | 0.0 | 0.0 | 0.00 | 0.00 | 0.00 | 19 | 1010.5 | |
| 20260504172531 | 73 | 0.0 | 0.0 | 0.00 | 0.00 | 0.00 | 19 | 1010.4 | |
| 20260504172046 | 74 | 0.0 | 0.0 | 0.00 | 0.00 | 0.00 | 19 | 1010.6 | |
| 20260504171520 | 75 | 180 | 1.0 | 2.0 | 0.00 | 0.00 | 0.00 | 19 | 1010.5 |
| 20260504171015 | 75 | 0.0 | 0.0 | 0.00 | 0.00 | 0.00 | 19 | 1010.4 | |
| 20260504170532 | 75 | 0.0 | 0.0 | 0.00 | 0.00 | 0.00 | 19 | 1010.4 | |
| 20260504160145 | 80 | 180 | 5.0 | 8.0 | 0.00 | 0.00 | 0.00 | 19 | 1010.7 |
| 20260504150738 | 80 | 45 | 7.0 | 10.0 | 0.00 | 0.00 | 0.00 | 19 | 1010.9 |
| 20260504150233 | 80 | 315 | 6.0 | 9.0 | 0.00 | 0.00 | 0.00 | 19 | 1011.0 |
| 20260504140850 | 80 | 135 | 6.0 | 7.0 | 0.00 | 0.00 | 0.00 | 19 | 1011.5 |
| 20260504140345 | 79 | 135 | 0.0 | 4.0 | 0.00 | 0.00 | 0.00 | 19 | 1011.5 |
| 20260504130600 | 81 | 315 | 4.0 | 6.0 | 0.00 | 0.00 | 0.00 | 19 | 1012.1 |
| 20260504120307 | 77 | 135 | 4.0 | 8.0 | 0.00 | 0.00 | 0.00 | 15 | 1012.8 |
| 20260504110717 | 77 | 135 | 5.0 | 6.0 | 0.00 | 0.00 | 0.00 | 15 | 1013.4 |
| 20260504110213 | 77 | 135 | 3.0 | 6.0 | 0.00 | 0.00 | 0.00 | 15 | 1013.4 |
| 20260504100326 | 75 | 180 | 8.0 | 10.0 | 0.00 | 0.00 | 0.00 | 19 | 1014.3 |
| 20260504081702 | 71 | 225 | 6.0 | 9.0 | 0.00 | 0.00 | 0.00 | 19 | 1015.0 |
| 20260504081300 | 71 | 180 | 4.0 | 6.0 | 0.00 | 0.00 | 0.00 | 19 | 1015.0 |
| 20260504080755 | 71 | 180 | 2.0 | 6.0 | 0.00 | 0.00 | 0.00 | 19 | 1015.2 |
| 20260504080251 | 71 | 180 | 5.0 | 6.0 | 0.00 | 0.00 | 0.00 | 19 | 1014.9 |
| 20260504070405 | 66 | 0.0 | 0.0 | 0.00 | 0.00 | 0.00 | 19 | 1014.7 | |
| 20260504060212 | 63 | 0.0 | 0.0 | 0.00 | 0.00 | 0.00 | 19 | 1014.7 | |
| 20260504050424 | 56 | 0.0 | 0.0 | 0.00 | 0.00 | 0.00 | 20 | 1014.6 | |
| 20260504045920 | 55 | 0.0 | 0.0 | 0.00 | 0.00 | 0.00 | 20 | 1014.5 | |
| 20260504045416 | 54 | 0.0 | 0.0 | 0.00 | 0.00 | 0.00 | 24 | 1014.6 | |
| 20260504044912 | 53 | 0.0 | 0.0 | 0.00 | 0.00 | 0.00 | 30 | 1014.5 | |
| 20260504044309 | 51 | 0.0 | 0.0 | 0.00 | 0.00 | 0.00 | 32 | 1014.2 | |
| 20260504043705 | 49 | 0.0 | 0.0 | 0.00 | 0.00 | 0.00 | 37 | 1014.3 | |
| 20260504043122 | 48 | 0.0 | 0.0 | 0.00 | 0.00 | 0.00 | 37 | 1014.3 | |
| 20260504042557 | 47 | 0.0 | 0.0 | 0.00 | 0.00 | 0.00 | 38 | 1014.3 | |
| 20260504042053 | 46 | 0.0 | 0.0 | 0.00 | 0.00 | 0.00 | 39 | 1014.3 | |
| 20260504041549 | 46 | 0.0 | 0.0 | 0.00 | 0.00 | 0.00 | 39 | 1014.3 | |
| 20260504041104 | 45 | 0.0 | 0.0 | 0.00 | 0.00 | 0.00 | 39 | 1014.5 | |
| 20260504040539 | 45 | 0.0 | 0.0 | 0.00 | 0.00 | 0.00 | 38 | 1014.3 | |
| 20260504040034 | 45 | 0.0 | 0.0 | 0.00 | 0.00 | 0.00 | 38 | 1014.5 | |
| 20260504035530 | 46 | 0.0 | 0.0 | 0.00 | 0.00 | 0.00 | 39 | 1014.5 | |
| 20260504035025 | 46 | 0.0 | 0.0 | 0.00 | 0.00 | 0.00 | 40 | 1014.3 | |
| 20260504034520 | 46 | 0.0 | 0.0 | 0.00 | 0.00 | 0.00 | 40 | 1014.2 | |
| 20260504034016 | 45 | 0.0 | 0.0 | 0.00 | 0.00 | 0.00 | 40 | 1014.5 | |
| 20260504033513 | 45 | 0.0 | 0.0 | 0.00 | 0.00 | 0.00 | 40 | 1014.5 | |
| 20260504032909 | 45 | 0.0 | 0.0 | 0.00 | 0.00 | 0.00 | 42 | 1014.5 | |
| 20260504032327 | 45 | 0.0 | 0.0 | 0.00 | 0.00 | 0.00 | 43 | 1014.3 | |
| 20260504031723 | 44 | 0.0 | 0.0 | 0.00 | 0.00 | 0.00 | 50 | 1014.5 | |
| 20260504031157 | 43 | 0.0 | 0.0 | 0.00 | 0.00 | 0.00 | 50 | 1014.3 | |
| 20260504030653 | 42 | 0.0 | 0.0 | 0.00 | 0.00 | 0.00 | 50 | 1014.5 | |
| 20260504030149 | 41 | 0.0 | 0.0 | 0.00 | 0.00 | 0.00 | 50 | 1014.5 | |
| 20260504025644 | 41 | 0.0 | 0.0 | 0.00 | 0.00 | 0.00 | 49 | 1014.6 | |
| 20260504025200 | 41 | 0.0 | 0.0 | 0.00 | 0.00 | 0.00 | 49 | 1014.7 | |
| 20260504024634 | 40 | 0.0 | 0.0 | 0.00 | 0.00 | 0.00 | 48 | 1014.6 | |
| 20260504024130 | 40 | 0.0 | 0.0 | 0.00 | 0.00 | 0.00 | 47 | 1014.6 | |
| 20260504023626 | 40 | 0.0 | 0.0 | 0.00 | 0.00 | 0.00 | 46 | 1014.8 | |
| 20260504023123 | 40 | 0.0 | 0.0 | 0.00 | 0.00 | 0.00 | 46 | 1014.6 | |
| 20260504022637 | 40 | 0.0 | 0.0 | 0.00 | 0.00 | 0.00 | 46 | 1014.5 | |
| 20260504022113 | 41 | 0.0 | 0.0 | 0.00 | 0.00 | 0.00 | 46 | 1014.8 | |
| 20260504021510 | 41 | 0.0 | 0.0 | 0.00 | 0.00 | 0.00 | 46 | 1014.7 | |
| 20260504020906 | 41 | 0.0 | 0.0 | 0.00 | 0.00 | 0.00 | 46 | 1014.8 | |
| 20260504020322 | 40 | 0.0 | 0.0 | 0.00 | 0.00 | 0.00 | 45 | 1014.9 | |
| 20260504015859 | 41 | 0.0 | 0.0 | 0.00 | 0.00 | 0.00 | 45 | 1014.8 | |
| 20260504015352 | 41 | 0.0 | 0.0 | 0.00 | 0.00 | 0.00 | 45 | 1015.0 | |
| 20260504014848 | 41 | 0.0 | 0.0 | 0.00 | 0.00 | 0.00 | 45 | 1014.9 | |
| 20260504014344 | 41 | 0.0 | 0.0 | 0.00 | 0.00 | 0.00 | 45 | 1014.9 | |
| 20260504013839 | 41 | 0.0 | 0.0 | 0.00 | 0.00 | 0.00 | 45 | 1014.7 | |
| 20260504013334 | 41 | 0.0 | 0.0 | 0.00 | 0.00 | 0.00 | 45 | 1014.8 | |
| 20260504012830 | 41 | 0.0 | 0.0 | 0.00 | 0.00 | 0.00 | 45 | 1014.7 | |
| 20260504012327 | 42 | 0.0 | 0.0 | 0.00 | 0.00 | 0.00 | 44 | 1014.8 | |
| 20260504011821 | 42 | 0.0 | 0.0 | 0.00 | 0.00 | 0.00 | 44 | 1014.7 | |
| 20260504011316 | 42 | 0.0 | 0.0 | 0.00 | 0.00 | 0.00 | 45 | 1014.6 | |
| 20260504010813 | 42 | 0.0 | 0.0 | 0.00 | 0.00 | 0.00 | 45 | 1014.6 | |
| 20260504010210 | 42 | 0.0 | 0.0 | 0.00 | 0.00 | 0.00 | 45 | 1014.5 | |
| 20260504005605 | 41 | 0.0 | 0.0 | 0.00 | 0.00 | 0.00 | 44 | 1014.6 | |
| 20260504005001 | 42 | 0.0 | 0.0 | 0.00 | 0.00 | 0.00 | 43 | 1014.2 | |
| 20260504004559 | 42 | 0.0 | 0.0 | 0.00 | 0.00 | 0.00 | 43 | 1014.5 | |
| 20260504004135 | 42 | 0.0 | 0.0 | 0.00 | 0.00 | 0.00 | 42 | 1014.2 | |
| 20260504003548 | 43 | 0.0 | 0.0 | 0.00 | 0.00 | 0.00 | 42 | 1014.2 | |
| 20260504003044 | 43 | 0.0 | 0.0 | 0.00 | 0.00 | 0.00 | 42 | 1014.2 | |
| 20260504002539 | 43 | 0.0 | 0.0 | 0.00 | 0.00 | 0.00 | 42 | 1014.1 | |
| 20260504002035 | 43 | 0.0 | 0.0 | 0.00 | 0.00 | 0.00 | 42 | 1014.1 | |
| 20260504001530 | 43 | 0.0 | 0.0 | 0.00 | 0.00 | 0.00 | 42 | 1014.2 | |
| 20260504001025 | 44 | 0.0 | 0.0 | 0.00 | 0.00 | 0.00 | 41 | 1014.1 | |
| 20260504000520 | 44 | 0.0 | 0.0 | 0.00 | 0.00 | 0.00 | 41 | 1014.1 | |
| 20260504000017 | 44 | 0.0 | 0.0 | 0.00 | 0.00 | 0.00 | 41 | 1014.1 | |
| 20260503235512 | 44 | 0.0 | 0.0 | 0.00 | 0.00 | 0.00 | 41 | 1014.1 | |
| 20260503234909 | 44 | 0.0 | 0.0 | 0.00 | 0.00 | 0.00 | 40 | 1014.2 | |
| 20260503234304 | 45 | 0.0 | 0.0 | 0.00 | 0.00 | 0.00 | 40 | 1014.3 | |
| 20260503233801 | 45 | 0.0 | 0.0 | 0.00 | 0.00 | 0.00 | 30 | 1014.2 | |
| 20260503233256 | 46 | 0.0 | 0.0 | 0.00 | 0.00 | 0.00 | 30 | 1014.5 | |
| 20260503232752 | 47 | 0.0 | 0.0 | 0.00 | 0.00 | 0.00 | 30 | 1014.2 | |
| 20260503232307 | 47 | 0.0 | 0.0 | 0.00 | 0.00 | 0.00 | 31 | 1014.5 | |
| 20260503231742 | 47 | 0.0 | 0.0 | 0.00 | 0.00 | 0.00 | 31 | 1014.5 | |
| 20260503231237 | 46 | 0.0 | 0.0 | 0.00 | 0.00 | 0.00 | 30 | 1014.6 | |
| 20260503230733 | 46 | 0.0 | 0.0 | 0.00 | 0.00 | 0.00 | 30 | 1014.6 | |
| 20260503230248 | 46 | 0.0 | 0.0 | 0.00 | 0.00 | 0.00 | 30 | 1014.3 | |
| 20260503225724 | 47 | 0.0 | 0.0 | 0.00 | 0.00 | 0.00 | 30 | 1014.5 | |
| 20260503225219 | 47 | 0.0 | 0.0 | 0.00 | 0.00 | 0.00 | 30 | 1014.6 | |
| 20260503224735 | 47 | 0.0 | 0.0 | 0.00 | 0.00 | 0.00 | 30 | 1014.6 | |
| 20260503224111 | 47 | 0.0 | 0.0 | 0.00 | 0.00 | 0.00 | 30 | 1014.6 | |
| 20260503223507 | 48 | 0.0 | 0.0 | 0.00 | 0.00 | 0.00 | 30 | 1014.6 | |
| 20260503222904 | 48 | 0.0 | 0.0 | 0.00 | 0.00 | 0.00 | 30 | 1014.6 | |
| 20260503222421 | 47 | 0.0 | 0.0 | 0.00 | 0.00 | 0.00 | 30 | 1014.5 | |
| 20260503221856 | 47 | 0.0 | 0.0 | 0.00 | 0.00 | 0.00 | 26 | 1014.6 | |
| 20260503221351 | 48 | 0.0 | 0.0 | 0.00 | 0.00 | 0.00 | 26 | 1014.7 | |
| 20260503220847 | 48 | 0.0 | 0.0 | 0.00 | 0.00 | 0.00 | 26 | 1014.7 | |
| 20260503220343 | 48 | 0.0 | 0.0 | 0.00 | 0.00 | 0.00 | 26 | 1014.3 | |
| 20260503215838 | 48 | 0.0 | 0.0 | 0.00 | 0.00 | 0.00 | 26 | 1014.6 | |
| 20260503215333 | 48 | 0.0 | 0.0 | 0.00 | 0.00 | 0.00 | 26 | 1014.5 | |
| 20260503214829 | 49 | 0.0 | 0.0 | 0.00 | 0.00 | 0.00 | 23 | 1014.7 | |
| 20260503214324 | 49 | 0.0 | 0.0 | 0.00 | 0.00 | 0.00 | 23 | 1014.6 | |
| 20260503213840 | 49 | 0.0 | 0.0 | 0.00 | 0.00 | 0.00 | 23 | 1014.6 | |
| 20260503213314 | 49 | 0.0 | 0.0 | 0.00 | 0.00 | 0.00 | 23 | 1014.7 | |
| 20260503212731 | 49 | 0.0 | 0.0 | 0.00 | 0.00 | 0.00 | 23 | 1014.7 | |
| 20260503212108 | 50 | 0.0 | 0.0 | 0.00 | 0.00 | 0.00 | 20 | 1014.6 | |
| 20260503211504 | 51 | 0.0 | 0.0 | 0.00 | 0.00 | 0.00 | 20 | 1014.7 | |
| 20260503211001 | 52 | 0.0 | 0.0 | 0.00 | 0.00 | 0.00 | 19 | 1014.6 | |
| 20260503210456 | 53 | 0.0 | 0.0 | 0.00 | 0.00 | 0.00 | 19 | 1014.6 | |
| 20260503205951 | 54 | 0.0 | 0.0 | 0.00 | 0.00 | 0.00 | 19 | 1014.7 |